Tracking 27419 objects as of 10-Jun-2023
HD Live streaming from Space Station
objects crossing your sky now

FENGYUN 1C DEB

Track FENGYUN 1C DEB now!
10-day predictions


NORAD ID: 30338
Int'l Code: 1999-025AAZ
Perigee: 559.5 km
Apogee: 1,029.5 km
Inclination: 98.6 °
Period: 100.6 minutes
Semi major axis: 7165 km
RCS: 0.0507 m2 (small)
Launch date: May 10, 1999
Source: People's Republic of China (PRC)
Launch site: Taiyaun Space Center, China (TSC)

Note: This is SATELLITE DEBRIS
Your satellite tracking list
Your tracking list is empty




NASA's NSSDC Master Catalog

Two Line Element Set (TLE):
1 30338U 99025AAZ 23160.92750657  .00006078  00000-0  12773-2 0  9998
2 30338  98.5619 225.2177 0327998  59.1484 111.4916 14.31305736849784
Source of the keplerian elements: AFSPC